Satellite-Ground Cal/Val Region Overpasses Predictions

Prediction of Satellite NPP Overpassing Cal/Val Region: PacNW

Region Location: (Latitude: 10.00, Longitude: 139.50) to (Latitude: 22.70, Longitude: 165.60).

Table of predicted overpasses for the next 14.0 days since TLE Epoch: 11/2/2018
Interval Starting Time Starting Location Ending Time Ending Location
1 11/03/2018 02:39:45 ( 10.05, 159.84) 11/03/2018 02:43:20 ( 22.67, 156.85)
2 11/03/2018 15:11:37 ( 22.67, 157.07) 11/03/2018 15:15:12 ( 10.05, 154.07)
3 11/04/2018 02:20:42 ( 10.00, 164.61) 11/04/2018 02:24:18 ( 22.68, 161.60)
4 11/04/2018 14:52:36 ( 22.66, 161.82) 11/04/2018 14:56:11 ( 10.03, 158.82)
5 11/05/2018 03:43:11 ( 10.03, 143.99) 11/05/2018 03:46:46 ( 22.65, 140.99)
6 11/05/2018 14:34:43 ( 18.65, 165.60) 11/05/2018 14:37:10 ( 10.02, 163.58)
7 11/05/2018 16:15:04 ( 22.69, 141.21) 11/05/2018 16:17:04 ( 15.65, 139.51)
8 11/06/2018 03:24:09 ( 10.04, 148.74) 11/06/2018 03:27:44 ( 22.66, 145.74)
9 11/06/2018 15:56:02 ( 22.68, 145.96) 11/06/2018 15:59:37 ( 10.06, 142.97)
10 11/07/2018 03:05:08 ( 10.06, 153.49) 11/07/2018 03:08:43 ( 22.68, 150.49)
11 11/07/2018 15:37:01 ( 22.66, 150.71) 11/07/2018 15:40:36 ( 10.04, 147.72)
12 11/08/2018 02:46:05 ( 10.01, 158.25) 11/08/2018 02:49:41 ( 22.70, 155.24)
13 11/08/2018 15:17:59 ( 22.64, 155.47) 11/08/2018 15:21:34 ( 10.02, 152.47)
14 11/09/2018 02:27:04 ( 10.03, 163.00) 11/09/2018 02:30:39 ( 22.65, 160.01)
15 11/09/2018 14:58:57 ( 22.69, 160.23) 11/09/2018 15:02:33 ( 10.01, 157.22)
16 11/10/2018 02:10:39 ( 19.27, 165.60) 11/10/2018 02:11:37 ( 22.67, 164.76)
17 11/10/2018 03:49:32 ( 10.05, 142.38) 11/10/2018 03:52:58 ( 22.15, 139.51)
18 11/10/2018 14:39:55 ( 22.67, 164.98) 11/10/2018 14:43:30 ( 10.05, 161.98)
19 11/10/2018 16:21:25 ( 22.66, 139.61) 11/10/2018 16:21:32 ( 22.25, 139.50)
20 11/11/2018 03:30:30 ( 10.01, 147.14) 11/11/2018 03:34:06 ( 22.69, 144.13)
21 11/11/2018 16:02:24 ( 22.65, 144.36) 11/11/2018 16:05:59 ( 10.02, 141.36)
22 11/12/2018 03:11:28 ( 10.03, 151.90) 11/12/2018 03:15:03 ( 22.65, 148.90)
23 11/12/2018 15:43:21 ( 22.69, 149.12) 11/12/2018 15:46:57 ( 10.01, 146.11)
24 11/13/2018 02:52:27 ( 10.05, 156.65) 11/13/2018 02:56:02 ( 22.67, 153.65)
25 11/13/2018 15:24:20 ( 22.67, 153.87) 11/13/2018 15:27:55 ( 10.05, 150.88)
26 11/14/2018 02:33:25 ( 10.01, 161.41) 11/14/2018 02:37:01 ( 22.69, 158.40)
27 11/14/2018 15:05:18 ( 22.65, 158.62) 11/14/2018 15:08:53 ( 10.03, 155.63)
28 11/15/2018 02:15:05 ( 12.50, 165.60) 11/15/2018 02:17:58 ( 22.65, 163.16)
29 11/15/2018 03:55:53 ( 10.03, 140.79) 11/15/2018 03:57:27 ( 15.56, 139.51)
30 11/15/2018 14:46:16 ( 22.69, 163.39) 11/15/2018 14:49:52 ( 10.01, 160.38)
31 11/16/2018 03:36:52 ( 10.05, 145.54) 11/16/2018 03:40:27 ( 22.68, 142.54)
32 11/16/2018 14:30:15 ( 12.05, 165.60) 11/16/2018 14:30:49 ( 10.05, 165.14)


NCC Satellite Cal/Val Overpasses Prediction Service
